{"data":{"norad_id":66578,"epoch":"2026-05-25T02:00:43.966944Z","epoch_age_seconds":58049,"freshness":"FRESH","line1":"1 66578U 25268X   26145.08384221  .00009994  00000+0  37214-3 0  9991","line2":"2 66578  43.0013 275.5952 0001143 259.9383 100.1340 15.27587123 29649","mean_motion":15.27587123,"eccentricity":0.0001143,"inclination_deg":43.0013,"raan_deg":275.5952,"arg_perigee_deg":259.9383,"mean_anomaly_deg":100.134,"bstar":0.00037214,"rev_number":2964,"period_min":94.266309156365,"perigee_km":482.24353616514,"apogee_km":483.81199843095,"semimajor_km":6861.164767298,"source":"CELESTRAK","updated_at":"2026-05-25T13:38:21.284304Z"}}